Weather History for GMAD - February, 2014

Change the Weather History Date:

Tuesday, February 18, 2014

  Actual Average Record
Temperature  
Mean Temperature 62 °F -  
Max Temperature 72 °F - - ()
Min Temperature 51 °F - - ()
Degree Days  
Heating Degree Days 4    
Growing Degree Days 12 (Base 50)    
Moisture  
Dew Point 43 °F    
Average Humidity 54    
Maximum Humidity 88    
Minimum Humidity 18    
Precipitation  
Precipitation 0.00 in - - ()
Sea Level Pressure  
Sea Level Pressure 29.96 in    
Wind  
Wind Speed 7 mph ()    
Max Wind Speed 15 mph    
Max Gust Speed -    
Visibility 6.1 miles    
Events      
T = Trace of Precipitation, MM = Missing Value Source: Averaged Metar Reports

Daily Weather History Graph

Daily Weather History Graph

Search for Another Location

Airport or City:

Trip Planner

Search our weather history database for the weather conditions in past years. The results will help you decide how hot, cold, wet, or windy it might be!

Date:

Astronomy

Feb. 18, 2014 Rise Set
Actual Time 7:15 AM WET 6:28 PM WET
Civil Twilight 6:50 AM WET 6:52 PM WET
Nautical Twilight 6:22 AM WET 7:20 PM WET
Astronomical Twilight 5:54 AM WET 7:48 PM WET
Moon 9:49 PM WET (2/18) 8:57 AM WET (2/18)
Length of Visible Light 12h 01m
Length of Day
11h 12m
Waning Gibbous, 89% of the Moon is Illuminated
Feb 18
Waning Gibbous
Feb 22
Last Quarter
Mar 1
New
Mar 8
First Quarter
Mar 16
Full

Hourly Weather History & Observations

Time (WET) Temp. Dew Point Humidity Pressure Visibility Wind Dir Wind Speed Gust Speed Precip Events Conditions
3:00 AM 53 °F 48 °F 77% 29.89 in 6 mi West 12.7 mph - -   Partly Cloudy
3:00 AM 51.8 °F 48.2 °F 88% 29.89 in - West 15.0 mph - N/A   Clear
4:00 AM 51.8 °F 46.4 °F 82% 29.89 in - WSW 8.1 mph - N/A   Clear
5:00 AM 51.8 °F 46.4 °F 82% 29.89 in - West 15.0 mph - N/A   Unknown
6:00 AM 53 °F 44 °F 63% 29.90 in 6 mi West 8.1 mph - -  
6:00 AM 53.6 °F 44.6 °F 72% 29.89 in - West 8.1 mph - N/A   Clear
7:00 AM 51.8 °F 44.6 °F 76% 29.89 in - WSW 6.9 mph - N/A   Clear
8:00 AM 51.8 °F 44.6 °F 76% 29.92 in 6.2 mi NNW 5.8 mph - N/A   Scattered Clouds
9:00 AM 56 °F 46 °F 60% 29.96 in 6 mi Calm Calm - -   Clear
9:00 AM 57.2 °F 46.4 °F 67% 29.95 in 6.2 mi Calm Calm - N/A   Scattered Clouds
10:00 AM 60.8 °F 46.4 °F 59% 29.98 in - Calm Calm - N/A   Clear
11:00 AM 60.8 °F 46.4 °F 59% 29.98 in 6.2 mi Variable 2.3 mph - N/A   Scattered Clouds
12:00 PM 65 °F 45 °F 37% 29.98 in 6 mi West 1.2 mph - -   Scattered Clouds
12:00 PM 64.4 °F 44.6 °F 49% 29.98 in 6.2 mi West 1.2 mph - N/A   Partly Cloudy
1:00 PM 68.0 °F 41.0 °F 37% 29.95 in 6.2 mi WNW 3.5 mph - N/A   Scattered Clouds
2:00 PM 71.6 °F 37.4 °F 29% 29.92 in 6.2 mi NW 3.5 mph - N/A   Scattered Clouds
4:00 PM 69.8 °F 41.0 °F 35% 29.92 in 6.2 mi Variable 2.3 mph - N/A   Partly Cloudy
6:00 PM 68 °F 35 °F 18% 29.96 in 6 mi NNW 13.8 mph - -   Scattered Clouds
6:00 PM 68.0 °F 35.6 °F 30% 29.95 in 6.2 mi NNW 13.8 mph - N/A   Partly Cloudy
7:00 PM 64.4 °F 35.6 °F 34% 29.98 in 6.2 mi NNW 11.5 mph - N/A   Partly Cloudy
8:00 PM 60.8 °F 39.2 °F 45% 30.01 in 6.2 mi West 12.7 mph - N/A   Unknown
9:00 PM 60 °F 37 °F 31% 30.04 in 6 mi West 5.8 mph - -  
9:00 PM 60.8 °F 37.4 °F 42% 30.04 in 6.2 mi West 5.8 mph - N/A   Unknown
10:00 PM 57.2 °F 39.2 °F 51% 30.06 in 6.2 mi Calm Calm - N/A   Unknown
11:00 PM 55.4 °F 42.8 °F 63% 30.06 in - SSE 8.1 mph - N/A   Unknown